Simultaneous Nadir Overpasses (SNOs) Predictions

Prediction of SNOs between GOES-16 and NPP Satellite Orbit:

Table of predicted SNOs for the next 14.0 days since TLE Epoch: 11/4/2022
Index Date Time (GOES-16) GOES-16 Lat,Lon NPP Lat,Lon Distance(km) Time Diff (sec)
1 11/05/2022 06:20:48 0.02, -75.19 -0.38, -73.48 195.41 80
2 11/06/2022 18:40:04 -0.02, -75.20 -0.81, -78.77 407.10 80
3 11/07/2022 18:23:58 -0.02, -75.21 0.18, -74.23 110.70 80
4 11/09/2022 06:43:06 0.02, -75.22 0.97, -79.50 488.01 80
5 11/10/2022 06:27:00 0.02, -75.23 -0.03, -74.96 29.87 80
6 11/12/2022 18:27:30 -0.02, -75.26 -0.15, -75.72 53.88 80
7 11/13/2022 18:11:25 -0.02, -75.27 0.92, -71.20 464.53 80
8 11/15/2022 06:33:12 0.01, -75.29 0.28, -76.46 133.07 80
9 11/16/2022 06:11:46 0.01, -75.31 -0.72, -71.92 385.60 80
10 11/17/2022 18:33:42 -0.01, -75.34 -0.45, -77.22 214.92 80
